Year,Month,Day,Hour,Minute,Value (Times are PST for temperature in C)
2016,04,08,00,00,10.90
2016,04,08,00,01,10.80
2016,04,08,00,02,10.80
2016,04,08,00,03,10.80
2016,04,08,00,04,10.80
2016,04,08,00,05,10.70
2016,04,08,00,06,10.70
2016,04,08,00,07,10.70
2016,04,08,00,08,10.60
2016,04,08,00,09,10.60
2016,04,08,00,10,10.60
2016,04,08,00,11,10.60
2016,04,08,00,12,10.60
2016,04,08,00,13,10.60
2016,04,08,00,14,10.60
2016,04,08,00,15,10.60
2016,04,08,00,16,10.60
2016,04,08,00,17,10.40
2016,04,08,00,18,10.40
2016,04,08,00,19,10.40
2016,04,08,00,20,10.40
2016,04,08,00,21,10.40
2016,04,08,00,22,10.40
2016,04,08,00,23,10.40
2016,04,08,00,24,10.40
2016,04,08,00,25,10.30
2016,04,08,00,26,10.30
2016,04,08,00,27,10.30
2016,04,08,00,28,10.30
2016,04,08,00,29,10.30
2016,04,08,00,30,10.30
2016,04,08,00,31,10.30
2016,04,08,00,32,10.20
2016,04,08,00,33,10.20
2016,04,08,00,34,10.20
2016,04,08,00,35,10.20
2016,04,08,00,36,10.20
2016,04,08,00,37,10.10
2016,04,08,00,38,10.10
2016,04,08,00,39,10.10
2016,04,08,00,40,10.10
2016,04,08,00,41,10.00
2016,04,08,00,42,9.90
2016,04,08,00,43,9.90
2016,04,08,00,44,9.90
2016,04,08,00,45,9.90
2016,04,08,00,46,9.90
2016,04,08,00,47,9.90
2016,04,08,00,48,9.90
2016,04,08,00,49,9.90
2016,04,08,00,50,9.90
2016,04,08,00,51,9.90
2016,04,08,00,52,9.80
2016,04,08,00,53,9.80
2016,04,08,00,54,9.80
2016,04,08,00,55,9.80
2016,04,08,00,56,9.80
2016,04,08,00,57,9.80
2016,04,08,00,58,9.80
2016,04,08,00,59,9.80
2016,04,08,01,00,9.80
2016,04,08,01,01,9.80
2016,04,08,01,02,9.80
2016,04,08,01,03,9.80
2016,04,08,01,04,9.80
2016,04,08,01,05,9.70
2016,04,08,01,06,9.70
2016,04,08,01,07,9.70
2016,04,08,01,08,9.70
2016,04,08,01,09,9.70
2016,04,08,01,10,9.70
2016,04,08,01,11,9.70
2016,04,08,01,12,9.70
2016,04,08,01,13,9.70
2016,04,08,01,14,9.70
2016,04,08,01,15,9.60
2016,04,08,01,16,9.60
2016,04,08,01,17,9.60
2016,04,08,01,18,9.60
2016,04,08,01,19,9.50
2016,04,08,01,20,9.50
2016,04,08,01,21,9.50
2016,04,08,01,22,9.50
2016,04,08,01,23,9.50
2016,04,08,01,24,9.50
2016,04,08,01,25,9.50
2016,04,08,01,26,9.50
2016,04,08,01,27,9.50
2016,04,08,01,28,9.40
2016,04,08,01,29,9.40
2016,04,08,01,30,9.40
2016,04,08,01,31,9.40
2016,04,08,01,32,9.40
2016,04,08,01,33,9.40
2016,04,08,01,34,9.40
2016,04,08,01,35,9.40
2016,04,08,01,36,9.40
2016,04,08,01,37,9.30
2016,04,08,01,38,9.30
2016,04,08,01,39,9.30
2016,04,08,01,40,9.30
2016,04,08,01,41,9.30
2016,04,08,01,42,9.30
2016,04,08,01,43,9.30
2016,04,08,01,44,9.30
2016,04,08,01,45,9.30
2016,04,08,01,46,9.20
2016,04,08,01,47,9.20
2016,04,08,01,48,9.20
2016,04,08,01,49,9.20
2016,04,08,01,50,9.20
2016,04,08,01,51,9.20
2016,04,08,01,52,9.20
2016,04,08,01,53,9.20
2016,04,08,01,54,9.20
2016,04,08,01,55,9.20
2016,04,08,01,56,9.20
2016,04,08,01,57,9.20
2016,04,08,01,58,9.20
2016,04,08,01,59,9.20
2016,04,08,02,00,9.20
2016,04,08,02,01,9.20
2016,04,08,02,02,9.20
2016,04,08,02,03,9.20
2016,04,08,02,04,9.20
2016,04,08,02,05,9.20
2016,04,08,02,06,9.20
2016,04,08,02,07,9.20
2016,04,08,02,08,9.10
2016,04,08,02,09,9.10
2016,04,08,02,10,9.10
2016,04,08,02,11,9.10
2016,04,08,02,12,9.10
2016,04,08,02,13,9.10
2016,04,08,02,14,9.10
2016,04,08,02,15,9.10
2016,04,08,02,16,9.10
2016,04,08,02,17,9.10
2016,04,08,02,18,9.10
2016,04,08,02,19,9.20
2016,04,08,02,20,9.10
2016,04,08,02,21,9.00
2016,04,08,02,22,9.00
2016,04,08,02,23,8.90
2016,04,08,02,24,8.90
2016,04,08,02,25,8.80
2016,04,08,02,26,8.80
2016,04,08,02,27,8.80
2016,04,08,02,28,8.80
2016,04,08,02,29,8.80
2016,04,08,02,30,8.80
2016,04,08,02,31,8.80
2016,04,08,02,32,8.80
2016,04,08,02,33,8.80
2016,04,08,02,34,8.80
2016,04,08,02,35,8.80
2016,04,08,02,36,8.70
2016,04,08,02,37,8.80
2016,04,08,02,38,8.80
2016,04,08,02,39,8.70
2016,04,08,02,40,8.70
2016,04,08,02,41,8.70
2016,04,08,02,42,8.80
2016,04,08,02,43,8.80
2016,04,08,02,44,8.80
2016,04,08,02,45,8.80
2016,04,08,02,46,8.80
2016,04,08,02,47,8.80
2016,04,08,02,48,8.90
2016,04,08,02,49,8.90
2016,04,08,02,50,8.90
2016,04,08,02,51,8.90
2016,04,08,02,52,8.90
2016,04,08,02,53,8.90
2016,04,08,02,54,8.90
2016,04,08,02,55,8.90
2016,04,08,02,56,8.80
2016,04,08,02,57,8.80
2016,04,08,02,58,8.70
2016,04,08,02,59,8.70
2016,04,08,03,00,8.70
2016,04,08,03,01,8.70
2016,04,08,03,02,8.70
2016,04,08,03,03,8.70
2016,04,08,03,04,8.70
2016,04,08,03,05,8.70
2016,04,08,03,06,8.70
2016,04,08,03,07,8.70
2016,04,08,03,08,8.70
2016,04,08,03,09,8.70
2016,04,08,03,10,8.70
2016,04,08,03,11,8.70
2016,04,08,03,12,8.70
2016,04,08,03,13,8.70
2016,04,08,03,14,8.70
2016,04,08,03,15,8.70
2016,04,08,03,16,8.70
2016,04,08,03,17,8.70
2016,04,08,03,18,8.70
2016,04,08,03,19,8.60
2016,04,08,03,20,8.60
2016,04,08,03,21,8.60
2016,04,08,03,22,8.60
2016,04,08,03,23,8.60
2016,04,08,03,24,8.60
2016,04,08,03,25,8.60
2016,04,08,03,26,8.60
2016,04,08,03,27,8.60
2016,04,08,03,28,8.60
2016,04,08,03,29,8.50
2016,04,08,03,30,8.50
2016,04,08,03,31,8.50
2016,04,08,03,32,8.40
2016,04,08,03,33,8.40
2016,04,08,03,34,8.40
2016,04,08,03,35,8.40
2016,04,08,03,36,8.40
2016,04,08,03,37,8.40
2016,04,08,03,38,8.40
2016,04,08,03,39,8.40
2016,04,08,03,40,8.40
2016,04,08,03,41,8.40
2016,04,08,03,42,8.40
2016,04,08,03,43,8.40
2016,04,08,03,44,8.30
2016,04,08,03,45,8.30
2016,04,08,03,46,8.30
2016,04,08,03,47,8.30
2016,04,08,03,48,8.30
2016,04,08,03,49,8.30
2016,04,08,03,50,8.30
2016,04,08,03,51,8.30
2016,04,08,03,52,8.30
2016,04,08,03,53,8.30
2016,04,08,03,54,8.30
2016,04,08,03,55,8.30
2016,04,08,03,56,8.40
2016,04,08,03,57,8.40
2016,04,08,03,58,8.40
2016,04,08,03,59,8.30
2016,04,08,04,00,8.30
2016,04,08,04,01,8.30
2016,04,08,04,02,8.30
2016,04,08,04,03,8.30
2016,04,08,04,04,8.20
2016,04,08,04,05,8.20
2016,04,08,04,06,8.20
2016,04,08,04,07,8.20
2016,04,08,04,08,8.20
2016,04,08,04,09,8.20
2016,04,08,04,10,8.20
2016,04,08,04,11,8.20
2016,04,08,04,12,8.20
2016,04,08,04,13,8.20
2016,04,08,04,14,8.20
2016,04,08,04,15,8.20
2016,04,08,04,16,8.20
2016,04,08,04,17,8.20
2016,04,08,04,18,8.20
2016,04,08,04,19,8.20
2016,04,08,04,20,8.20
2016,04,08,04,21,8.20
2016,04,08,04,22,8.20
2016,04,08,04,23,8.20
2016,04,08,04,24,8.20
2016,04,08,04,25,8.20
2016,04,08,04,26,8.20
2016,04,08,04,27,8.20
2016,04,08,04,28,8.20
2016,04,08,04,29,8.20
2016,04,08,04,30,8.20
2016,04,08,04,31,8.20
2016,04,08,04,32,8.20
2016,04,08,04,33,8.20
2016,04,08,04,34,8.20
2016,04,08,04,35,8.10
2016,04,08,04,36,8.10
2016,04,08,04,37,8.10
2016,04,08,04,38,8.00
2016,04,08,04,39,8.00
2016,04,08,04,40,8.00
2016,04,08,04,41,7.90
2016,04,08,04,42,7.90
2016,04,08,04,43,7.90
2016,04,08,04,44,7.80
2016,04,08,04,45,7.80
2016,04,08,04,46,7.80
2016,04,08,04,47,7.80
2016,04,08,04,48,7.70
2016,04,08,04,49,7.70
2016,04,08,04,50,7.60
2016,04,08,04,51,7.60
2016,04,08,04,52,7.60
2016,04,08,04,53,7.60
2016,04,08,04,54,7.60
2016,04,08,04,55,7.60
2016,04,08,04,56,7.60
2016,04,08,04,57,7.60
2016,04,08,04,58,7.60
2016,04,08,04,59,7.60
2016,04,08,05,00,7.60
2016,04,08,05,01,7.60
2016,04,08,05,02,7.60
2016,04,08,05,03,7.60
2016,04,08,05,04,7.60
2016,04,08,05,05,7.60
2016,04,08,05,06,7.60
2016,04,08,05,07,7.60
2016,04,08,05,08,7.60
2016,04,08,05,09,7.60
2016,04,08,05,10,7.60
2016,04,08,05,11,7.60
2016,04,08,05,12,7.60
2016,04,08,05,13,7.60
2016,04,08,05,14,7.60
2016,04,08,05,15,7.60
2016,04,08,05,16,7.70
2016,04,08,05,17,7.70
2016,04,08,05,18,7.60
2016,04,08,05,19,7.60
2016,04,08,05,20,7.50
2016,04,08,05,21,7.50
2016,04,08,05,22,7.50
2016,04,08,05,23,7.40
2016,04,08,05,24,7.40
2016,04,08,05,25,7.30
2016,04,08,05,26,7.30
2016,04,08,05,27,7.30
2016,04,08,05,28,7.30
2016,04,08,05,29,7.30
2016,04,08,05,30,7.30
2016,04,08,05,31,7.30
2016,04,08,05,32,7.30
2016,04,08,05,33,7.30
2016,04,08,05,34,7.30
2016,04,08,05,35,7.30
2016,04,08,05,36,7.30
2016,04,08,05,37,7.30
2016,04,08,05,38,7.20
2016,04,08,05,39,7.20
2016,04,08,05,40,7.20
2016,04,08,05,41,7.10
2016,04,08,05,42,7.10
2016,04,08,05,43,7.10
2016,04,08,05,44,7.10
2016,04,08,05,45,7.10
2016,04,08,05,46,7.10
2016,04,08,05,47,7.10
2016,04,08,05,48,7.10
2016,04,08,05,49,7.10
2016,04,08,05,50,7.10
2016,04,08,05,51,7.10
2016,04,08,05,52,7.10
2016,04,08,05,53,7.10
2016,04,08,05,54,7.10
2016,04,08,05,55,7.10
2016,04,08,05,56,7.10
2016,04,08,05,57,7.00
2016,04,08,05,58,7.00
2016,04,08,05,59,7.00
2016,04,08,06,00,7.00
2016,04,08,06,01,7.00
2016,04,08,06,02,7.10
2016,04,08,06,03,7.10
2016,04,08,06,04,7.10
2016,04,08,06,05,7.20
2016,04,08,06,06,7.20
2016,04,08,06,07,7.20
2016,04,08,06,08,7.20
2016,04,08,06,09,7.20
2016,04,08,06,10,7.20
2016,04,08,06,11,7.10
2016,04,08,06,12,7.10
2016,04,08,06,13,7.10
2016,04,08,06,14,7.10
2016,04,08,06,15,7.10
2016,04,08,06,16,7.10
2016,04,08,06,17,7.10
2016,04,08,06,18,7.10
2016,04,08,06,19,7.00
2016,04,08,06,20,7.00
2016,04,08,06,21,7.10
2016,04,08,06,22,7.10
2016,04,08,06,23,7.00
2016,04,08,06,24,7.00
2016,04,08,06,25,6.90
2016,04,08,06,26,6.90
2016,04,08,06,27,6.80
2016,04,08,06,28,6.80
2016,04,08,06,29,6.80
2016,04,08,06,30,6.80
2016,04,08,06,31,6.80
2016,04,08,06,32,6.80
2016,04,08,06,33,6.80
2016,04,08,06,34,6.80
2016,04,08,06,35,6.80
2016,04,08,06,36,6.80
2016,04,08,06,37,6.80
2016,04,08,06,38,6.80
2016,04,08,06,39,6.80
2016,04,08,06,40,6.80
2016,04,08,06,41,6.80
2016,04,08,06,42,6.90
2016,04,08,06,43,6.90
2016,04,08,06,44,6.90
2016,04,08,06,45,6.80
2016,04,08,06,46,6.80
2016,04,08,06,47,6.80
2016,04,08,06,48,6.80
2016,04,08,06,49,6.80
2016,04,08,06,50,6.80
2016,04,08,06,51,6.80
2016,04,08,06,52,6.80
2016,04,08,06,53,6.80
2016,04,08,06,54,6.80
2016,04,08,06,55,6.80
2016,04,08,06,56,6.90
2016,04,08,06,57,6.90
2016,04,08,06,58,6.90
2016,04,08,06,59,6.80
2016,04,08,07,00,6.80
2016,04,08,07,01,6.80
2016,04,08,07,02,6.80
2016,04,08,07,03,6.90
2016,04,08,07,04,6.90
2016,04,08,07,05,6.90
2016,04,08,07,06,6.90
2016,04,08,07,07,6.90
2016,04,08,07,08,6.90
2016,04,08,07,09,6.90
2016,04,08,07,10,6.90
2016,04,08,07,11,6.80
2016,04,08,07,12,6.80
2016,04,08,07,13,6.80
2016,04,08,07,14,6.80
2016,04,08,07,15,6.80
2016,04,08,07,16,6.80
2016,04,08,07,17,6.90
2016,04,08,07,18,6.90
2016,04,08,07,19,7.00
2016,04,08,07,20,7.00
2016,04,08,07,21,7.10
2016,04,08,07,22,7.20
2016,04,08,07,23,7.30
2016,04,08,07,24,7.30
2016,04,08,07,25,7.30
2016,04,08,07,26,7.30
2016,04,08,07,27,7.40
2016,04,08,07,28,7.40
2016,04,08,07,29,7.50
2016,04,08,07,30,7.50
2016,04,08,07,31,7.50
2016,04,08,07,32,7.60
2016,04,08,07,33,7.60
2016,04,08,07,34,7.70
2016,04,08,07,35,7.80
2016,04,08,07,36,7.80
2016,04,08,07,37,7.90
2016,04,08,07,38,8.00
2016,04,08,07,39,8.10
2016,04,08,07,40,8.20
2016,04,08,07,41,8.20
2016,04,08,07,42,8.30
2016,04,08,07,43,8.40
2016,04,08,07,44,8.50
2016,04,08,07,45,8.60
2016,04,08,07,46,8.70
2016,04,08,07,47,8.70
2016,04,08,07,48,8.70
2016,04,08,07,49,8.90
2016,04,08,07,50,8.90
2016,04,08,07,51,9.00
2016,04,08,07,52,9.00
2016,04,08,07,53,9.10
2016,04,08,07,54,9.20
2016,04,08,07,55,9.20
2016,04,08,07,56,9.30
2016,04,08,07,57,9.40
2016,04,08,07,58,9.50
2016,04,08,07,59,9.60
2016,04,08,08,00,9.70
2016,04,08,08,01,9.80
2016,04,08,08,02,9.80
2016,04,08,08,03,9.90
2016,04,08,08,04,10.00
2016,04,08,08,05,10.10
2016,04,08,08,06,10.10
2016,04,08,08,07,10.20
2016,04,08,08,08,10.30
2016,04,08,08,09,10.30
2016,04,08,08,10,10.40
2016,04,08,08,11,10.50
2016,04,08,08,12,10.60
2016,04,08,08,13,10.70
2016,04,08,08,14,10.80
2016,04,08,08,15,10.90
2016,04,08,08,16,10.90
2016,04,08,08,17,10.90
2016,04,08,08,18,11.10
2016,04,08,08,19,11.10
2016,04,08,08,20,11.20
2016,04,08,08,21,11.30
2016,04,08,08,22,11.40
2016,04,08,08,23,11.40
2016,04,08,08,24,11.50
2016,04,08,08,25,11.60
2016,04,08,08,26,11.60
2016,04,08,08,27,11.70
2016,04,08,08,28,11.80
2016,04,08,08,29,11.90
2016,04,08,08,30,12.00
2016,04,08,08,31,12.10
2016,04,08,08,32,12.20
2016,04,08,08,33,12.20
2016,04,08,08,34,12.30
2016,04,08,08,35,12.30
2016,04,08,08,36,12.30
2016,04,08,08,37,12.30
2016,04,08,08,38,12.40
2016,04,08,08,39,12.40
2016,04,08,08,40,12.40
2016,04,08,08,41,12.40
2016,04,08,08,42,12.50
2016,04,08,08,43,12.50
2016,04,08,08,44,12.60
2016,04,08,08,45,12.70
2016,04,08,08,46,12.80
2016,04,08,08,47,13.00
2016,04,08,08,48,13.10
2016,04,08,08,49,13.30
2016,04,08,08,50,13.30
2016,04,08,08,51,13.30
2016,04,08,08,52,13.30
2016,04,08,08,53,13.40
2016,04,08,08,54,13.40
2016,04,08,08,55,13.50
2016,04,08,08,56,13.50
2016,04,08,08,57,13.60
2016,04,08,08,58,13.50
2016,04,08,08,59,13.60
2016,04,08,09,00,13.60
2016,04,08,09,01,13.50
2016,04,08,09,02,13.60
2016,04,08,09,03,13.60
2016,04,08,09,04,13.60
2016,04,08,09,05,13.60
2016,04,08,09,06,13.70
2016,04,08,09,07,13.80
2016,04,08,09,08,13.90
2016,04,08,09,09,13.90
2016,04,08,09,10,14.00
2016,04,08,09,11,14.00
2016,04,08,09,12,14.00
2016,04,08,09,13,14.10
2016,04,08,09,14,14.20
2016,04,08,09,15,14.30
2016,04,08,09,16,14.30
2016,04,08,09,17,14.30
2016,04,08,09,18,14.30
2016,04,08,09,19,14.40
2016,04,08,09,20,14.40
2016,04,08,09,21,14.50
2016,04,08,09,22,14.50
2016,04,08,09,23,14.60
2016,04,08,09,24,14.60
2016,04,08,09,25,14.70
2016,04,08,09,26,14.80
2016,04,08,09,27,14.90
2016,04,08,09,28,15.00
2016,04,08,09,29,15.10
2016,04,08,09,30,15.10
2016,04,08,09,31,15.20
2016,04,08,09,32,15.30
2016,04,08,09,33,15.30
2016,04,08,09,34,15.20
2016,04,08,09,35,15.20
2016,04,08,09,36,15.30
2016,04,08,09,37,15.30
2016,04,08,09,38,15.30
2016,04,08,09,39,15.30
2016,04,08,09,40,15.30
2016,04,08,09,41,15.30
2016,04,08,09,42,15.30
2016,04,08,09,43,15.30
2016,04,08,09,44,15.40
2016,04,08,09,45,15.50
2016,04,08,09,46,15.60
2016,04,08,09,47,15.70
2016,04,08,09,48,15.80
2016,04,08,09,49,15.90
2016,04,08,09,50,16.10
2016,04,08,09,51,16.20
2016,04,08,09,52,16.20
2016,04,08,09,53,16.30
2016,04,08,09,54,16.40
2016,04,08,09,55,16.40
2016,04,08,09,56,16.40
2016,04,08,09,57,16.50
2016,04,08,09,58,16.70
2016,04,08,09,59,16.70
2016,04,08,10,00,16.80
2016,04,08,10,01,16.90
2016,04,08,10,02,16.90
2016,04,08,10,03,16.90
2016,04,08,10,04,16.90
2016,04,08,10,05,17.00
2016,04,08,10,06,17.00
2016,04,08,10,07,17.10
2016,04,08,10,08,17.10
2016,04,08,10,09,17.20
2016,04,08,10,10,17.10
2016,04,08,10,11,16.90
2016,04,08,10,12,16.80
2016,04,08,10,13,16.80
2016,04,08,10,14,16.90
2016,04,08,10,15,16.90
2016,04,08,10,16,16.90
2016,04,08,10,17,17.00
2016,04,08,10,18,17.00
2016,04,08,10,19,17.10
2016,04,08,10,20,17.10
2016,04,08,10,21,17.20
2016,04,08,10,22,17.10
2016,04,08,10,23,17.10
2016,04,08,10,24,17.10
2016,04,08,10,25,17.10
2016,04,08,10,26,17.20
2016,04,08,10,27,17.30
2016,04,08,10,28,17.40
2016,04,08,10,29,17.50
2016,04,08,10,30,17.60
2016,04,08,10,31,17.70
2016,04,08,10,32,17.80
2016,04,08,10,33,17.80
2016,04,08,10,34,17.80
2016,04,08,10,35,17.90
2016,04,08,10,36,17.90
2016,04,08,10,37,17.90
2016,04,08,10,38,17.90
2016,04,08,10,39,17.90
2016,04,08,10,40,17.90
2016,04,08,10,41,17.90
2016,04,08,10,42,17.90
2016,04,08,10,43,17.90
2016,04,08,10,44,17.90
2016,04,08,10,45,17.90
2016,04,08,10,46,17.90
2016,04,08,10,47,18.00
2016,04,08,10,48,18.20
2016,04,08,10,49,18.20
2016,04,08,10,50,18.20
2016,04,08,10,51,18.20
2016,04,08,10,52,18.10
2016,04,08,10,53,18.10
2016,04,08,10,54,17.90
2016,04,08,10,55,17.90
2016,04,08,10,56,18.00
2016,04,08,10,57,18.10
2016,04,08,10,58,18.20
2016,04,08,10,59,18.20
2016,04,08,11,00,18.20
2016,04,08,11,01,18.30
2016,04,08,11,02,18.30
2016,04,08,11,03,18.30
2016,04,08,11,04,18.30
2016,04,08,11,05,18.30
2016,04,08,11,06,18.30
2016,04,08,11,07,18.30
2016,04,08,11,08,18.30
2016,04,08,11,09,18.20
2016,04,08,11,10,18.20
2016,04,08,11,11,18.20
2016,04,08,11,12,18.20
2016,04,08,11,13,18.20
2016,04,08,11,14,18.10
2016,04,08,11,15,18.10
2016,04,08,11,16,18.10
2016,04,08,11,17,18.10
2016,04,08,11,18,18.10
2016,04,08,11,19,18.10
2016,04,08,11,20,18.10
2016,04,08,11,21,18.10
2016,04,08,11,22,18.20
2016,04,08,11,23,18.20
2016,04,08,11,24,18.20
2016,04,08,11,25,18.40
2016,04,08,11,26,18.40
2016,04,08,11,27,18.50
2016,04,08,11,28,18.70
2016,04,08,11,29,18.60
2016,04,08,11,30,18.60
2016,04,08,11,31,18.70
2016,04,08,11,32,18.60
2016,04,08,11,33,18.70
2016,04,08,11,34,18.70
2016,04,08,11,35,18.70
2016,04,08,11,36,18.60
2016,04,08,11,37,18.60
2016,04,08,11,38,18.60
2016,04,08,11,39,18.60
2016,04,08,11,40,18.60
2016,04,08,11,41,18.70
2016,04,08,11,42,18.70
2016,04,08,11,43,18.60
2016,04,08,11,44,18.50
2016,04,08,11,45,18.50
2016,04,08,11,46,18.50
2016,04,08,11,47,18.50
2016,04,08,11,48,18.60
2016,04,08,11,49,18.70
2016,04,08,11,50,18.80
2016,04,08,11,51,18.80
2016,04,08,11,52,18.70
2016,04,08,11,53,18.80
2016,04,08,11,54,18.90
2016,04,08,11,55,18.80
2016,04,08,11,56,18.70
2016,04,08,11,57,18.80
2016,04,08,11,58,18.90
2016,04,08,11,59,18.90
2016,04,08,12,00,18.90
2016,04,08,12,01,19.10
2016,04,08,12,02,19.10
2016,04,08,12,03,19.20
2016,04,08,12,04,19.40
2016,04,08,12,05,19.40
2016,04,08,12,06,19.40
2016,04,08,12,07,19.50
2016,04,08,12,08,19.50
2016,04,08,12,09,19.40
2016,04,08,12,10,19.40
2016,04,08,12,11,19.50
2016,04,08,12,12,19.40
2016,04,08,12,13,19.40
2016,04,08,12,14,19.40
2016,04,08,12,15,19.50
2016,04,08,12,16,19.50
2016,04,08,12,17,19.50
2016,04,08,12,18,19.60
2016,04,08,12,19,19.60
2016,04,08,12,20,19.60
2016,04,08,12,21,19.60
2016,04,08,12,22,19.70
2016,04,08,12,23,19.80
2016,04,08,12,24,19.90
2016,04,08,12,25,19.90
2016,04,08,12,26,19.90
2016,04,08,12,27,19.90
2016,04,08,12,28,20.00
2016,04,08,12,29,20.10
2016,04,08,12,30,20.10
2016,04,08,12,31,19.90
2016,04,08,12,32,19.90
2016,04,08,12,33,19.90
2016,04,08,12,34,20.00
2016,04,08,12,35,20.10
2016,04,08,12,36,20.20
2016,04,08,12,37,20.20
2016,04,08,12,38,20.20
2016,04,08,12,39,20.20
2016,04,08,12,40,20.20
2016,04,08,12,41,20.30
2016,04,08,12,42,20.30
2016,04,08,12,43,20.30
2016,04,08,12,44,20.20
2016,04,08,12,45,20.20
2016,04,08,12,46,20.20
2016,04,08,12,47,20.20
2016,04,08,12,48,20.20
2016,04,08,12,49,20.10
2016,04,08,12,50,20.20
2016,04,08,12,51,20.20
2016,04,08,12,52,20.20
2016,04,08,12,53,20.20
2016,04,08,12,54,20.20
2016,04,08,12,55,20.10
2016,04,08,12,56,19.80
2016,04,08,12,57,19.40
2016,04,08,12,58,19.10
2016,04,08,12,59,18.90
2016,04,08,13,00,18.60
2016,04,08,13,01,18.50
2016,04,08,13,02,18.40
2016,04,08,13,03,18.30
2016,04,08,13,04,18.20
2016,04,08,13,05,18.20
2016,04,08,13,06,18.20
2016,04,08,13,07,18.20
2016,04,08,13,08,18.10
2016,04,08,13,09,18.10
2016,04,08,13,10,18.10
2016,04,08,13,11,18.20
2016,04,08,13,12,18.20
2016,04,08,13,13,18.20
2016,04,08,13,14,18.10
2016,04,08,13,15,18.10
2016,04,08,13,16,18.10
2016,04,08,13,17,17.90
2016,04,08,13,18,17.90
2016,04,08,13,19,17.90
2016,04,08,13,20,17.90
2016,04,08,13,21,17.90
2016,04,08,13,22,17.90
2016,04,08,13,23,17.90
2016,04,08,13,24,17.80
2016,04,08,13,25,17.70
2016,04,08,13,26,17.50
2016,04,08,13,27,17.30
2016,04,08,13,28,17.10
2016,04,08,13,29,16.90
2016,04,08,13,30,16.70
2016,04,08,13,31,16.50
2016,04,08,13,32,16.30
2016,04,08,13,33,16.20
2016,04,08,13,34,16.10
2016,04,08,13,35,16.00
2016,04,08,13,36,15.90
2016,04,08,13,37,15.90
2016,04,08,13,38,15.80
2016,04,08,13,39,15.90
2016,04,08,13,40,16.00
2016,04,08,13,41,16.10
2016,04,08,13,42,16.10
2016,04,08,13,43,16.20
2016,04,08,13,44,16.30
2016,04,08,13,45,16.40
2016,04,08,13,46,16.40
2016,04,08,13,47,16.50
2016,04,08,13,48,16.60
2016,04,08,13,49,16.70
2016,04,08,13,50,16.70
2016,04,08,13,51,16.80
2016,04,08,13,52,16.80
2016,04,08,13,53,16.80
2016,04,08,13,54,16.80
2016,04,08,13,55,16.70
2016,04,08,13,56,16.50
2016,04,08,13,57,16.30
2016,04,08,13,58,16.20
2016,04,08,13,59,16.10
2016,04,08,14,00,16.00
2016,04,08,14,01,15.90
2016,04,08,14,02,15.90
2016,04,08,14,03,15.80
2016,04,08,14,04,15.70
2016,04,08,14,05,15.60
2016,04,08,14,06,15.60
2016,04,08,14,07,15.50
2016,04,08,14,08,15.50
2016,04,08,14,09,15.50
2016,04,08,14,10,15.50
2016,04,08,14,11,15.60
2016,04,08,14,12,15.60
2016,04,08,14,13,15.70
2016,04,08,14,14,15.80
2016,04,08,14,15,15.80
2016,04,08,14,16,15.80
2016,04,08,14,17,15.80
2016,04,08,14,18,15.90
2016,04,08,14,19,16.00
2016,04,08,14,20,16.10
2016,04,08,14,21,16.10
2016,04,08,14,22,16.20
2016,04,08,14,23,16.10
2016,04,08,14,24,15.90
2016,04,08,14,25,15.70
2016,04,08,14,26,15.50
2016,04,08,14,27,15.30
2016,04,08,14,28,15.10
2016,04,08,14,29,15.00
2016,04,08,14,30,14.90
2016,04,08,14,31,14.80
2016,04,08,14,32,14.80
2016,04,08,14,33,14.80
2016,04,08,14,34,14.80
2016,04,08,14,35,14.80
2016,04,08,14,36,14.80
2016,04,08,14,37,14.90
2016,04,08,14,38,14.90
2016,04,08,14,39,14.90
2016,04,08,14,40,14.80
2016,04,08,14,41,14.80
2016,04,08,14,42,14.80
2016,04,08,14,43,14.80
2016,04,08,14,44,14.90
2016,04,08,14,45,14.90
2016,04,08,14,46,14.90
2016,04,08,14,47,14.80
2016,04,08,14,48,14.80
2016,04,08,14,49,14.80
2016,04,08,14,50,14.80
2016,04,08,14,51,14.80
2016,04,08,14,52,14.80
2016,04,08,14,53,14.80
2016,04,08,14,54,14.80
2016,04,08,14,55,14.90
2016,04,08,14,56,14.90
2016,04,08,14,57,15.00
2016,04,08,14,58,15.00
2016,04,08,14,59,15.00
2016,04,08,15,00,15.00
2016,04,08,15,01,15.00
2016,04,08,15,02,15.00
2016,04,08,15,03,15.00
2016,04,08,15,04,15.00
2016,04,08,15,05,15.00
2016,04,08,15,06,15.00
2016,04,08,15,07,15.00
2016,04,08,15,08,15.10
2016,04,08,15,09,15.20
2016,04,08,15,10,15.30
2016,04,08,15,11,15.30
2016,04,08,15,12,15.30
2016,04,08,15,13,15.40
2016,04,08,15,14,15.40
2016,04,08,15,15,15.50
2016,04,08,15,16,15.50
2016,04,08,15,17,15.60
2016,04,08,15,18,15.70
2016,04,08,15,19,15.80
2016,04,08,15,20,15.80
2016,04,08,15,21,15.80
2016,04,08,15,22,15.80
2016,04,08,15,23,15.80
2016,04,08,15,24,15.90
2016,04,08,15,25,15.90
2016,04,08,15,26,16.00
2016,04,08,15,27,16.10
2016,04,08,15,28,16.20
2016,04,08,15,29,16.20
2016,04,08,15,30,16.30
2016,04,08,15,31,16.40
2016,04,08,15,32,16.40
2016,04,08,15,33,16.50
2016,04,08,15,34,16.60
2016,04,08,15,35,16.70
2016,04,08,15,36,16.80
2016,04,08,15,37,16.90
2016,04,08,15,38,17.00
2016,04,08,15,39,17.20
2016,04,08,15,40,17.30
2016,04,08,15,41,17.40
2016,04,08,15,42,17.50
2016,04,08,15,43,17.60
2016,04,08,15,44,17.70
2016,04,08,15,45,17.70
2016,04,08,15,46,17.80
2016,04,08,15,47,17.80
2016,04,08,15,48,17.90
2016,04,08,15,49,17.90
2016,04,08,15,50,18.00
2016,04,08,15,51,18.10
2016,04,08,15,52,18.10
2016,04,08,15,53,18.10
2016,04,08,15,54,18.20
2016,04,08,15,55,18.20
2016,04,08,15,56,18.30
2016,04,08,15,57,18.30
2016,04,08,15,58,18.30
2016,04,08,15,59,18.30
2016,04,08,16,00,18.20
2016,04,08,16,01,18.20
2016,04,08,16,02,18.20
2016,04,08,16,03,18.20
2016,04,08,16,04,18.20
2016,04,08,16,05,18.20
2016,04,08,16,06,18.10
2016,04,08,16,07,18.10
2016,04,08,16,08,18.10
2016,04,08,16,09,17.90
2016,04,08,16,10,17.90
2016,04,08,16,11,17.80
2016,04,08,16,12,17.80
2016,04,08,16,13,17.90
2016,04,08,16,14,17.90
2016,04,08,16,15,17.90
2016,04,08,16,16,17.90
2016,04,08,16,17,18.00
2016,04,08,16,18,18.10
2016,04,08,16,19,18.00
2016,04,08,16,20,17.90
2016,04,08,16,21,17.90
2016,04,08,16,22,17.90
2016,04,08,16,23,17.90
2016,04,08,16,24,17.90
2016,04,08,16,25,18.00
2016,04,08,16,26,18.10
2016,04,08,16,27,18.10
2016,04,08,16,28,18.10
2016,04,08,16,29,18.20
2016,04,08,16,30,18.20
2016,04,08,16,31,18.20
2016,04,08,16,32,18.20
2016,04,08,16,33,18.20
2016,04,08,16,34,18.20
2016,04,08,16,35,18.10
2016,04,08,16,36,18.10
2016,04,08,16,37,18.00
2016,04,08,16,38,17.90
2016,04,08,16,39,17.90
2016,04,08,16,40,17.90
2016,04,08,16,41,17.90
2016,04,08,16,42,17.90
2016,04,08,16,43,18.00
2016,04,08,16,44,18.10
2016,04,08,16,45,18.10
2016,04,08,16,46,18.20
2016,04,08,16,47,18.20
2016,04,08,16,48,18.20
2016,04,08,16,49,18.20
2016,04,08,16,50,18.20
2016,04,08,16,51,18.20
2016,04,08,16,52,18.20
2016,04,08,16,53,18.20
2016,04,08,16,54,18.20
2016,04,08,16,55,18.20
2016,04,08,16,56,18.20
2016,04,08,16,57,18.10
2016,04,08,16,58,18.10
2016,04,08,16,59,18.00
2016,04,08,17,00,17.90
2016,04,08,17,01,17.90
2016,04,08,17,02,18.00
2016,04,08,17,03,18.10
2016,04,08,17,04,18.00
2016,04,08,17,05,17.90
2016,04,08,17,06,17.90
2016,04,08,17,07,17.90
2016,04,08,17,08,17.80
2016,04,08,17,09,17.80
2016,04,08,17,10,17.70
2016,04,08,17,11,17.70
2016,04,08,17,12,17.60
2016,04,08,17,13,17.60
2016,04,08,17,14,17.70
2016,04,08,17,15,17.70
2016,04,08,17,16,17.70
2016,04,08,17,17,17.80
2016,04,08,17,18,17.80
2016,04,08,17,19,17.80
2016,04,08,17,20,17.80
2016,04,08,17,21,17.80
2016,04,08,17,22,17.80
2016,04,08,17,23,17.80
2016,04,08,17,24,17.90
2016,04,08,17,25,17.90
2016,04,08,17,26,18.00
2016,04,08,17,27,18.10
2016,04,08,17,28,18.10
2016,04,08,17,29,18.20
2016,04,08,17,30,18.20
2016,04,08,17,31,18.20
2016,04,08,17,32,18.20
2016,04,08,17,33,18.30
2016,04,08,17,34,18.30
2016,04,08,17,35,18.30
2016,04,08,17,36,18.30
2016,04,08,17,37,18.40
2016,04,08,17,38,18.40